Regional Weather Roundup
Issued by NWS Upton, NY

Current Version | Previous Version | Text Only | Print | Product List | Glossary On
Versions: 1 2 3 4 5 6 7 8 9 10 11 12 13 14 15 16 17 18 19 20 21 22 23 24 25 26 27 28 29 30 31 32 33 34 35 36 37 38 39 40 41 42 43 44 45 46 47 48 49 50
000
ASUS41 KOKX 221705
RWROKX
REGIONAL WEATHER ROUNDUP
NATIONAL WEATHER SERVICE NEW YORK NY
100 PM EDT MON SEP 22 2014

NOTE: "FAIR" INDICATES FEW OR NO CLOUDS BELOW 12,000 FEET WITH NO
SIGNIFICANT WEATHER AND/OR OBSTRUCTIONS TO VISIBILITY.

NYZ071-072-176-178-NJZ106-104-221800-
NEW YORK CITY METRO AREA


CITY           SKY/WX    TMP DP  RH WIND       PRES   REMARKS
CENTRAL PARK   CLOUDY    68  47  46 VRB7      29.92R
LAGUARDIA APRT PTSUNNY   68  50  52 NW17G24   29.89R
KENNEDY INTL   PTSUNNY   72  49  44 W20       29.90R
NEWARK/LIBERTY PTSUNNY   72  49  44 NW16G25   29.90R
BRNX BOT. GARD   N/A     68  48  49 NW9       29.92R
TETERBORO      PTSUNNY   71  47  42 NW17G24   29.89S
$$

NYZ177-179-078>081-221800-
LONG ISLAND NEW YORK

CITY           SKY/WX    TMP DP  RH WIND       PRES   REMARKS
FARMINGDALE    NOT AVBL
ISLIP          NOT AVBL
SHIRLEY        NOT AVBL
WESTHAMPTON    NOT AVBL
MONTAUK POINT  NOT AVBL
$$

NYZ052-065-067-221800-
HUDSON VALLEY

CITY           SKY/WX    TMP DP  RH WIND       PRES   REMARKS
WHITE PLAINS   NOT AVBL
NEWBURGH       MOSUNNY   68  50  52 NW18G30   29.91R
MONTGOMERY     NOT AVBL
POUGHKEEPSIE   NOT AVBL
ALBANY         PTSUNNY   62  44  51 W18G36    29.91R
$$

NJZ001-105-106-008-010-013-015-019>022-104-221800-
NEW JERSEY

CITY           SKY/WX    TMP DP  RH WIND       PRES   REMARKS
NEWARK/LIBERTY PTSUNNY   72  49  44 NW16G25   29.90R
TETERBORO      PTSUNNY   71  47  42 NW17G24   29.89S
CALDWELL       NOT AVBL
MORRISTOWN     NOT AVBL
SOMERVILLE     NOT AVBL
LINDEN         CLOUDY    72  52  50 NW14G23   29.93S
SUSSEX         NOT AVBL
ANDOVER        NOT AVBL
TRENTON        NOT AVBL
MILLVILLE      NOT AVBL
ATLANTIC CITY  NOT AVBL
WRIGHTSTOWN    NOT AVBL
TOMS RIVER     PTSUNNY   72  48  43 NW12G20   29.92R
BELMAR         CLOUDY    72  52  49 NW15      29.91R
$$

PAZ047>061-062-071-221800-
EASTERN PENNSYLVANIA

CITY           SKY/WX    TMP DP  RH WIND       PRES   REMARKS
PHILADELPHIA   NOT AVBL
ALLENTOWN      CLOUDY    65  48  54 NW14G20   29.97R
SCRANTON       CLOUDY    57  45  62 NW13      30.01R
$$

CTZ002-004>006-009-010-012-RIZ004-006-007-MAZ004-011-015-221800-
SOUTHERN NEW ENGLAND
 IN CT

CITY           SKY/WX    TMP DP  RH WIND       PRES   REMARKS
BRADLEY INTL   MOSUNNY   70  46  42 NW16G23   29.84R
HARTFORD       NOT AVBL
DANBURY        NOT AVBL
WTRBRY/OXFORD  NOT AVBL
BRIDGEPORT     NOT AVBL
MERIDEN        NOT AVBL
NEW HAVEN      NOT AVBL
CHESTER        PTSUNNY   70  52  52 NW13G18   29.84S
GROTON         NOT AVBL
WILLIMANTIC    MOSUNNY   69  47  45 NW12G24   29.83R

 IN RI

CITY           SKY/WX    TMP DP  RH WIND       PRES   REMARKS
PROVIDENCE     MOSUNNY   73  46  38 NW18G28   29.79S
BLOCK ISLAND   SUNNY     72  55  56 W14G22    29.82R
WESTERLY       NOT AVBL

 IN MA

CITY           SKY/WX    TMP DP  RH WIND       PRES   REMARKS
BOSTON         NOT AVBL
WORCESTER      NOT AVBL
WESTFIELD      NOT AVBL
PROVINCETOWN   SUNNY     72  57  60 W15G22    29.74S
NANTUCKET      NOT AVBL
$$

ANZ330-335-338-340-345-350-353-355-221800-
COASTAL MARINE OBSERVATIONS


STATION/POSITION TIME  SKY/WX   TEMP    WIND        PRES    VSBY  WAVE
                                AIR SEA DIR/SP/G                  HT/PER
                 (UTC)          (F)     (DEG/KT/KT) (MB)    (MI)  (FT/S)
NY HARB ENTRANCE 1600            67 70  310/ 16/ 19 1012.2          5/10
4S FIRE IS       1600               70                N/A           6/10
20S FIRE ISLAND  1600            66 68  290/ 16/ 19 1011.5          7/11
23SW MTP         1600                                 N/A           8/11
HUDSON CANYON    1600            67 70  300/ 17/ 21 1011.6          8/11
EXECUTION ROCKS  1600            69 70  300/ 16/ 23   N/A
WESTERN LI SOUND 1600            67     310/ 16/ 19   N/A           1/ 3
CENTRAL LI SOUND 1600            68 70  290/ 14/ 17   N/A           3/ 5
EASTERN LI SOUND 1600            69 68  300/ 14/ 17   N/A
ROBBINS REEF     1600            67     300/ 18/ 23 1011.1
$$


>>>>>>>>>>>>>>>>>>>>>>>>>>>> KEY <<<<<<<<<<<<<<<<<<<<<<<<<<<
>                                                          <
>     SKY/WX - SKY CONDITION/PRESENT WEATHER               <
>     TMP    - TEMPERATURE IN FAHRENHEIT                   <
>     DP     - DEWPOINT IN FAHRENHEIT                      <
>     RH     - RELATIVE HUMIDITY IN PERCENT                <
>     WIND   - DIRECTION AND SPEED IN MPH                  <
>     PRES   - MEAN SEA LEVEL PRESSURE IN INCHES OF HG     <
>     WCI    - WIND CHILL INDEX                            <
>     VSB    - VISIBILITY IN MILES                         <
>     HX     - HEAT INDEX                                  <
>     TC     - TEMPERATURE IN CELSIUS                      <
>     VRB    - VARIABLE WIND DIRECTION                     <
>                                                          <
>>>>>>>>>>>>>>>>>>>>>>>>>>>> KEY <<<<<<<<<<<<<<<<<<<<<<<<<<<




USA.gov is the U.S. government's official web portal to all federal, state and local government web resources and services.